Regional Weather Roundup
Issued by NWS Portland, ME

Home | Current Version | Previous Version | Text Only | Print | Product List | Glossary On
Versions: 1 2 3 4 5 6 7 8 9 10 11 12 13 14 15 16 17 18 19 20 21 22 23 24 25 26 27 28 29 30 31 32 33 34 35 36 37 38 39 40 41 42 43 44 45 46 47 48 49 50
000
ASUS41 KGYX 310410
RWRGYX
WEATHER ROUNDUP FOR MAINE AND NEW HAMPSHIRE
NATIONAL WEATHER SERVICE GRAY ME
1200 AM EDT WED AUG 31 2016

MEZ002-005-006-010-012-015-018-020-021-024-026-027-029-310500-
MAINE

CITY           SKY/WX    TMP DP  RH WIND       PRES   REMARKS
PORTLAND       CLOUDY    65  60  84 CALM      30.02F
SANFORD        CLEAR     54  53  97 CALM      30.03S
BAR HARBOR     MOCLDY    63  55  75 SW5       30.02S
WISCASSET      CLOUDY    60  57  89 CALM      30.03F
ROCKLAND       CLEAR     63  61  93 W6        30.01F
FRYEBURG       MOCLDY    60  58  92 CALM      30.02F
LEWISTONAUBURN CLOUDY    58  56  93 CALM      30.02F
AUGUSTA        CLOUDY    61  55  81 SW5       30.02S
WATERVILLE     CLOUDY    61  54  77 CALM      29.98F
BANGOR         PTCLDY    64  52  64 S5        30.00F
GREENVILLE       N/A     61  50  67 CALM      29.99F
MILLINOCKET    PTCLDY    61  55  81 CALM      29.99F
HOULTON        CLEAR     56  56 100 S3        29.95F
PRESQUE ISLE   MOCLDY    58  57  97 CALM      29.95F FOG
FRENCHVILLE    CLOUDY    60  57  89 S5        29.93F
CARIBOU        MOCLDY    60  58  92 S3        29.93F FOG
$$

NHZ002-005-008-009-011-012-014-310500-
NEW HAMPSHIRE

CITY           SKY/WX    TMP DP  RH WIND       PRES   REMARKS
PORTSMOUTH     PTCLDY    63  58  84 CALM      30.00F
ROCHESTER      CLEAR     61  56  83 CALM      30.02F
NASHUA         CLEAR     64  57  78 CALM      30.03F
MANCHESTER     CLEAR     67  56  67 SE5       30.01F
CONCORD        CLEAR     60  56  86 CALM      30.02F
LACONIA        CLEAR     61  58  90 CALM      30.04S
PLYMOUTH       FAIR      57  56  96 CALM      30.03S
BERLIN         CLOUDY    58  54  86 CALM      30.03F
WHITEFIELD     MOCLDY    59  56  89 CALM      30.03F
JAFFREY        CLEAR     59  54  83 CALM      30.07F
KEENE          CLEAR     58  57  97 CALM      30.05F
LEBANON        PTCLDY    59  56  89 CALM      30.03S
MT WASHINGTON  FOG       48  48 100 W30         N/A  VSB 0
$$

VTZ005-007-008-310500-
VERMONT

CITY           SKY/WX    TMP DP  RH WIND       PRES   REMARKS
ST JOHNSBURY     N/A     65  59  81 MISG      30.00F
MONTPELIER     MOCLDY    60  57  89 CALM      30.05F
BURLINGTON     CLOUDY    71  57  61 S8        29.97F
$$

MAZ007-012-024-CTZ003-RIZ002-NYZ038-NYZ072-310500-
SOUTHERN NEW ENGLAND AND NY

CITY           SKY/WX    TMP DP  RH WIND       PRES   REMARKS
BOSTON         CLEAR     71  63  75 SW10      30.03F
WORCESTER      CLEAR     63  57  81 SW7       30.07F
NANTUCKET      CLEAR     67  63  87 S9        30.07S
PROVIDENCE     PTCLDY    67  63  87 S5        30.06S
HARTFORD       CLOUDY    65  58  78 CALM      30.05S
ALBANY         PTCLDY    66  59  78 S3        30.03F
NEW YORK CITY  CLOUDY    77  70  79 S8        30.05S
$$

ANZ081-ANZ082-ANZ150-NHZ014-MEZ023>029-310500-
COASTAL MARINE OBSERVATIONS

STATION/POSITION TIME  TEMP    WIND        PRES    WAVE
                       AIR SEA DIR/SP/G            HT/PER
                 (UTC) (F)     (DEG/KT/KT) (MB)    (FT/S)
MOUNT DESERT ROC 0400   60     220/ 11/ 11 1016.6F
MATINICUS ROCK   0400   63     230/ 14/ 15 1016.2F
ISLE OF SHOALS   0400   67     220/  6/  6 1016.1F
JEFFREYS LEDGE   0308      66                N/A     3/12
CASHES LEDGE BUO 0350   69 66  200/ 12/ 14 1016.8F   3/11
GEORGES BANK BUO 0350   68 69              1018.2F   3/11
$$

.............KEY..............
   WCI - WIND CHILL
   TC  - TEMPERATURE IN CELSIUS
   VSB - VISIBILITY IN MILES
   HX  - HEAT INDEX
   FAIR- INDICATES FEW OR NO CLOUDS BELOW 12,000 FT, WITH NO
         SIGNIFICANT WEATHER AND/OR OBSTRUCTIONS TO VISIBILITY.






USA.gov is the U.S. government's official web portal to all federal, state and local government web resources and services.